Location: Springfield
(37.2150°N, 93.2980°W)
Time: 07:44:12
(UTC-05:00)

SL-8 Rocket - Pass Details

Date: 19 April 2018
Orbit: 956 x 992 km, 82.9° (Epoch: 25 May)

Event Time Altitude Azimuth Distance (km) Brightness Sun altitude
Exits shadow 21:34:28 11° 178° (S) 2,676 6.0 -19.5°
Maximum altitude 21:40:34 76° 94° (E) 1,020 3.9 -20.5°
Drops below altitude 10° 21:46:51 10° 10° (N) 2,745 6.6 -21.5°
Sets 21:49:22 0° 9° (N) 3,692 7.4 -22.0°
